View from above orbital plane
|
View from above satellite
|
Ground track
|
The orbit data is extracted from the following two-line orbital elements,
1 10515U 77117B 21059.40597002 .00000102 00000-0 51639-4 0 9990
2 10515 81.2465 44.7923 0029336 24.4757 335.7798 14.08735314219922
Epoch (UTC): | 28 February 2021 09:44:35 |
Eccentricity: | 0.0029336 |
inclination: | 81.2465° |
perigee height: | 842 km |
apogee height: | 885 km |
right ascension of ascending node: | 44.7923° |
argument of perigee: | 24.4757° |
revolutions per day: | 14.08735314 |
mean anomaly at epoch: | 335.7798° |
orbit number at epoch: | 21992 |
The dashed part of the orbit path shows where the satellite is in the earth's shadow,
|
|